Location: The Saddle
(36.8333°N, 80.3417°W)
Time: 13:05:35
(UTC-05:00)

A-11 Canister half - Pass Details

Date: 17 December 2023
Orbit: 1526 x 1682 km, 47.3° (Epoch: 22 February)

Event Time Altitude Azimuth Distance (km) Brightness Sun altitude
Rises 12:35:37 0° 168° (SSE) 4,814 12.7 29.7°
Reaches altitude 10° 12:41:42 10° 139° (SE) 3,871 11.8 29.5°
Maximum altitude 12:44:50 12° 120° (ESE) 3,742 11.4 29.5°
Drops below altitude 10° 12:47:58 10° 101° (ESE) 3,908 11.3 29.4°
Sets 12:54:08 0° 74° (ENE) 4,924 11.4 29.2°
